GFSMA_prec_cloud_006.txt.gz
Cloud_Cover
5 4 5 5 5 0 1 0 0 0 0 0 0 0 0 0 0 0 0 0 0 0 0 0 0 0 0 0 0 0 0 1 36 100 100 100 100 100 100 100 100 100 100
5 5 5 5 1 1 5 5 5 0 0 0 0 0 0 0 0 0 0 0 0 0 0 0 0 0 0 0 0 0 0 36 5 6 86 100 100 100 100 100 100 100 100
84 94 88 27 5 5 5 5 5 5 1 0 0 2 0 0 0 0 0 0 0 2 5 1 0 0 0 0 0 0 0 1 11 52 68 100 100 100 100 100 100 100 100
100 100 71 5 30 20 5 5 5 5 5 0 0 0 0 0 2 5 0 0 0 0 0 0 0 0 0 2 4 0 3 5 2 70 29 25 100 100 100 100 100 100 100
96 56 39 66 100 39 5 5 5 4 0 0 0 4 5 5 5 3 5 5 5 2 0 0 0 0 0 0 1 5 1 2 5 6 100 97 66 100 100 100 100 100 100
48 97 99 44 5 5 5 5 1 0 0 0 0 0 0 0 0 1 5 7 9 25 45 20 2 0 0 5 2 0 5 5 0 5 31 100 100 99 99 100 100 100 100
5 23 38 26 5 4 0 0 0 0 0 0 0 0 0 0 0 1 0 1 1 4 5 6 98 63 4 2 0 4 0 5 5 7 5 71 78 100 100 100 100 100 100
68 84 7 2 0 0 0 1 2 5 5 0 0 4 0 0 0 0 0 4 0 0 1 2 5 5 71 57 5 1 0 0 4 4 1 29 100 95 100 100 100 100 100
7 2 0 0 3 5 5 5 5 5 15 5 5 1 6 1 1 0 0 0 0 0 0 0 0 1 66 53 15 5 5 4 0 0 5 3 47 100 100 100 100 100 100
0 0 3 5 5 23 28 29 5 1 0 13 1 0 3 43 78 5 5 4 0 0 0 2 0 0 0 7 85 86 6 5 5 3 2 5 3 5 98 100 100 100 100
5 5 5 5 5 5 4 8 5 5 1 4 3 0 2 5 5 35 20 5 10 5 5 0 0 5 5 0 0 1 51 95 5 3 5 5 4 11 91 62 100 100 100
5 1 5 5 25 16 5 32 87 16 0 2 5 5 4 3 0 6 5 5 5 3 3 4 0 0 5 5 0 0 0 0 2 4 4 14 5 19 2 5 23 100 100
4 44 68 12 5 5 32 46 85 100 89 40 34 3 56 6 5 5 15 18 4 3 2 0 0 0 0 42 5 0 0 2 0 0 87 9 50 66 96 74 56 5 92
37 5 2 5 5 5 13 79 100 100 86 32 89 69 69 6 5 4 5 2 3 2 1 0 0 0 5 5 61 5 0 5 5 4 38 6 94 59 83 100 100 81 12
5 5 4 5 80 5 96 96 83 62 74 93 96 48 29 59 82 5 5 5 29 4 1 0 5 2 0 5 70 63 44 57 5 30 67 72 100 100 100 100 100 74 63
0 5 22 84 68 96 99 96 17 100 81 14 17 74 85 100 98 53 5 5 5 48 80 2 0 0 0 0 17 100 86 100 100 97 98 99 93 86 100 100 95 46 99
0 16 88 72 32 27 6 4 5 5 5 18 10 5 20 24 5 5 5 1 1 1 5 1 0 0 0 0 5 95 100 76 100 50 8 85 95 99 100 100 79 87 95
5 86 28 79 5 4 5 5 3 19 5 5 5 0 0 5 5 0 0 5 0 0 54 93 5 5 0 4 5 14 100 100 77 87 99 7 5 2 80 100 100 100 100
6 79 100 45 5 14 5 5 5 0 0 0 0 1 5 4 5 5 5 5 4 15 74 100 85 5 4 79 33 49 98 100 100 100 100 90 5 3 2 100 100 94 100
64 93 97 16 10 24 6 8 5 0 0 0 2 5 5 52 74 81 55 57 41 14 15 96 86 16 46 4 100 5 41 100 100 100 94 98 73 6 3 60 100 100 100
7 99 4 5 4 22 100 44 5 0 0 4 5 5 60 80 99 100 100 99 100 99 100 100 100 90 99 100 84 88 39 3 100 98 65 85 86 38 5 96 100 100 100
99 36 5 5 94 100 68 5 5 5 5 5 73 89 9 7 6 99 59 100 100 100 96 100 83 100 100 100 100 100 97 5 9 100 72 15 96 85 100 100 100 100 100
37 54 88 100 100 50 5 53 24 5 5 6 5 5 5 41 20 8 5 56 99 98 100 100 100 100 100 100 100 100 100 28 0 23 62 17 18 61 97 100 100 100 100
5 5 6 8 17 9 36 5 5 5 5 5 5 5 5 37 20 99 93 100 100 100 100 100 100 62 96 100 88 98 100 30 6 5 5 49 5 10 18 100 45 72 100
99 99 99 97 100 17 5 5 5 5 5 5 8 5 83 96 72 100 100 100 100 100 100 100 100 99 100 100 100 100 99 100 96 84 18 31 8 5 5 11 80 100 98
89 71 18 5 5 5 2 3 5 5 26 8 8 22 28 100 100 100 100 89 100 100 100 100 100 69 87 58 70 18 61 100 100 87 10 47 5 5 5 32 62 6 80

GFSMA_prec_cloud_009.txt.gz
Cloud_Cover
9 5 5 69 46 5 46 8 5 2 0 0 0 0 0 0 0 0 0 0 0 0 0 0 0 0 0 0 0 0 0 0 0 27 100 100 100 100 100 100 100 100 100
95 95 100 90 74 86 6 6 5 5 5 0 0 0 0 0 0 0 0 0 0 0 0 0 0 0 0 0 0 0 0 0 0 0 88 100 100 100 100 100 100 100 100
93 81 73 62 40 99 10 6 6 5 4 0 0 0 0 0 0 0 0 0 0 0 0 0 0 0 0 0 0 0 4 0 0 0 0 9 100 100 100 100 100 100 100
100 100 99 100 100 100 89 84 26 1 1 1 0 0 0 0 0 0 1 2 5 4 4 5 5 0 0 0 0 0 0 5 5 0 0 0 96 100 100 100 100 100 100
100 100 99 82 46 34 6 5 5 5 5 0 0 0 2 0 0 2 5 5 6 5 5 5 5 5 3 1 0 0 0 0 5 15 4 0 1 78 100 100 100 100 100
12 4 5 5 5 5 5 5 1 0 0 0 0 0 0 0 0 0 3 4 5 5 5 5 6 6 5 5 3 0 0 0 0 5 6 1 0 5 100 100 100 100 100
5 5 5 5 1 0 0 0 0 4 5 5 3 0 0 0 0 0 0 0 2 1 0 0 0 3 5 5 4 1 0 0 0 0 4 0 57 0 33 100 100 100 100
4 0 0 0 0 0 2 3 0 0 1 4 4 0 2 4 5 1 2 0 0 0 1 0 0 1 3 0 2 4 0 0 0 0 1 2 0 0 0 91 100 100 100
0 0 0 5 5 5 1 0 0 0 0 0 0 0 0 0 5 2 0 5 3 2 4 5 0 1 5 4 1 0 0 0 0 0 0 4 0 0 1 0 3 68 100
0 0 4 5 5 0 0 0 0 0 0 0 3 4 3 5 5 0 3 4 5 0 3 5 0 0 4 5 5 3 0 0 0 5 5 0 5 0 3 0 3 47 56
5 5 5 7 5 5 0 0 0 0 21 11 78 100 99 90 76 11 0 0 0 0 3 5 4 0 0 5 5 5 1 0 0 0 84 31 5 5 5 3 42 4 77
0 0 0 0 0 2 4 56 5 26 6 12 86 66 36 73 99 84 42 3 0 0 0 5 4 1 1 0 5 1 5 1 0 0 0 56 99 40 5 5 66 4 5
0 0 2 5 8 5 6 89 100 48 5 19 4 3 2 4 1 5 15 26 3 2 5 4 5 1 0 0 3 4 5 5 1 0 0 0 29 100 100 83 92 56 44
5 5 6 28 42 22 7 99 86 5 5 33 2 1 1 1 18 81 16 22 37 4 1 4 5 5 5 2 0 1 19 54 82 5 5 5 5 54 97 100 100 100 100
6 53 87 13 8 99 46 85 82 0 0 0 5 5 0 0 1 3 5 5 41 67 6 0 0 4 5 2 0 1 13 60 100 58 7 5 5 25 5 47 100 100 100
58 12 5 10 100 70 17 2 0 2 0 3 1 0 0 0 2 5 5 55 38 30 15 1 3 3 4 3 3 0 17 25 100 100 17 20 37 97 28 38 100 44 100
5 5 9 97 76 8 92 3 5 5 0 0 0 0 0 1 5 5 39 6 5 20 94 1 5 40 91 94 5 1 50 93 96 100 100 66 58 81 100 41 82 96 100
5 5 33 100 99 99 89 48 71 5 3 0 0 0 4 5 5 77 81 37 98 100 100 98 98 100 100 100 80 27 71 100 76 100 100 100 16 29 100 84 91 100 100
5 5 21 79 100 86 96 97 67 10 5 5 0 5 5 9 48 77 98 100 100 100 100 100 100 100 100 100 96 74 75 100 98 100 100 100 100 91 33 5 100 64 100
29 25 10 100 100 97 75 11 43 5 5 5 5 5 5 71 73 93 100 100 100 100 100 100 100 100 100 100 100 99 72 98 100 76 100 100 100 100 99 89 100 100 99
55 5 100 80 39 99 64 95 85 5 5 9 5 5 5 75 75 87 100 100 100 100 100 100 100 100 100 100 100 100 100 100 99 10 100 100 88 100 100 100 98 100 100
5 36 5 87 100 100 100 98 14 60 34 0 0 1 5 5 48 100 100 97 99 100 100 100 100 100 100 100 100 100 100 100 100 61 61 96 98 64 100 96 100 100 100
5 5 5 5 17 20 20 97 60 3 0 0 2 5 6 41 76 100 100 98 100 99 97 100 100 100 100 100 100 100 100 100 100 100 96 100 16 88 100 100 100 100 100
2 5 5 5 5 5 55 4 3 0 0 5 5 15 86 100 100 100 100 100 100 100 100 100 100 100 100 100 100 100 100 100 96 100 99 68 91 16 100 100 100 100 100
5 5 5 5 5 5 5 5 0 4 5 5 9 90 100 100 100 100 100 100 100 100 100 85 95 98 100 82 98 100 100 100 99 84 100 100 41 54 56 38 100 100 100
4 5 5 5 5 5 5 5 2 5 5 7 5 18 100 100 100 99 100 100 100 100 100 100 100 100 100 100 86 92 100 100 100 100 100 98 100 91 68 8 32 95 99

GFSMA_prec_cloud_012.txt.gz
Cloud_Cover
100 100 84 63 6 5 36 8 8 5 81 100 9 3 0 0 0 0 0 0 0 0 1 1 0 0 0 0 0 0 0 0 0 0 5 100 100 100 100 100 100 100 100
100 100 67 94 97 75 8 88 98 100 100 59 4 0 0 0 0 0 0 0 0 0 0 5 0 0 0 0 0 0 0 0 0 0 2 100 100 100 100 100 100 100 100
100 100 100 100 100 100 100 100 100 29 9 0 0 0 0 0 0 0 0 0 0 0 0 0 0 0 0 0 0 0 0 0 0 0 0 2 100 100 100 100 100 100 100
100 100 100 100 100 100 100 97 53 5 2 3 5 5 5 2 0 0 1 0 0 0 0 0 0 0 0 0 0 0 0 0 0 0 6 0 44 100 100 100 100 100 100
100 100 100 100 97 76 25 1 2 5 5 3 5 5 10 7 2 3 5 2 1 0 0 0 0 0 0 0 0 0 0 0 0 0 0 1 9 100 100 100 100 100 100
100 89 41 7 0 0 0 0 0 0 0 0 0 0 4 0 0 3 6 6 5 3 3 1 5 5 5 5 4 0 0 0 0 0 0 0 1 87 100 100 100 100 100
0 0 0 0 0 0 0 0 0 1 0 2 0 0 0 4 38 84 84 49 29 15 7 5 4 0 0 1 4 5 3 0 0 0 0 0 0 0 95 100 100 100 100
3 0 0 0 0 0 3 3 5 5 5 5 12 5 20 24 4 37 73 5 49 80 7 5 5 3 3 4 0 0 5 5 0 0 0 0 0 0 0 41 100 100 100
0 0 0 0 1 4 4 0 1 5 5 5 28 9 6 0 4 3 16 27 18 15 5 5 5 3 0 0 0 5 5 2 0 0 0 0 0 0 1 1 5 71 100
4 0 0 0 0 0 0 1 1 1 4 5 5 5 6 5 5 5 16 91 5 2 5 4 5 0 0 0 0 6 13 0 0 0 0 0 0 0 0 3 4 0 96
5 4 0 0 0 0 0 0 0 2 12 13 5 5 5 5 15 82 63 54 31 5 5 5 5 5 3 0 0 0 0 2 0 0 0 0 0 2 2 0 3 5 27
5 0 0 0 0 0 2 5 5 5 48 100 92 5 11 30 25 96 98 66 5 0 5 5 10 5 5 5 0 0 0 0 0 0 0 0 0 2 0 3 2 4 1
0 0 0 2 21 47 30 67 92 72 42 45 83 37 65 98 100 100 100 85 20 4 5 5 5 5 5 5 5 5 3 0 3 3 1 2 0 0 1 11 5 10 2
5 5 63 59 7 64 92 37 100 100 88 82 77 86 100 100 100 100 100 100 70 5 5 5 5 5 5 5 5 0 4 4 5 5 5 5 0 0 0 2 32 29 100
73 34 5 5 88 100 100 100 100 90 95 53 96 100 100 100 100 100 100 100 100 82 5 5 1 5 10 78 59 34 12 38 5 5 5 5 5 0 2 8 88 100 100
5 5 5 49 100 56 100 100 100 100 96 96 100 100 100 98 100 100 100 100 100 100 63 5 5 77 100 100 100 100 97 5 1 7 5 11 25 5 3 5 100 80 85
5 29 6 22 26 91 100 87 95 100 100 100 100 100 100 100 100 100 100 100 100 100 100 2 96 100 100 100 100 100 100 100 87 76 5 23 96 11 5 5 13 69 92
73 13 5 30 69 86 100 94 87 100 100 100 100 100 100 100 100 100 100 100 100 100 100 88 100 100 100 100 100 100 100 100 78 100 100 93 100 100 94 5 5 57 100
47 5 5 76 90 97 98 100 100 100 88 98 42 77 96 82 31 23 78 99 100 100 100 100 100 100 100 100 98 100 100 90 100 100 50 99 100 100 100 81 11 15 99
30 10 42 39 90 71 57 63 84 62 89 89 88 80 65 7 5 27 16 91 100 100 100 100 100 100 100 100 100 100 100 100 100 100 99 24 100 100 100 100 94 92 88
18 81 23 16 8 22 80 99 93 100 100 89 50 4 2 4 4 37 65 95 100 100 100 100 100 100 100 100 100 100 100 100 100 100 100 100 100 100 100 100 100 100 100
6 96 94 78 77 84 5 53 52 93 96 5 0 0 0 5 38 7 89 92 54 100 100 100 100 100 100 100 100 100 100 100 100 100 100 100 100 100 100 100 100 100 100
56 87 88 73 57 70 5 5 8 2 4 0 0 1 3 10 95 100 100 99 100 100 98 100 100 100 100 100 100 100 100 100 100 100 100 100 100 100 100 100 100 100 100
66 96 97 31 16 5 5 3 0 2 0 0 0 5 5 41 100 84 100 100 100 100 100 100 100 100 100 100 100 100 100 100 98 100 100 100 100 98 93 100 100 100 100
65 100 24 5 5 5 5 5 5 5 5 5 5 5 5 13 62 80 100 100 100 100 100 100 100 99 37 6 24 98 100 100 100 100 100 100 100 100 99 100 100 100 100
55 5 3 5 5 5 5 5 5 5 39 5 8 5 5 20 54 90 93 100 100 100 100 100 100 100 100 100 56 85 100 100 100 100 100 100 100 100 100 100 100 100 100

GFSMA_prec_cloud_015.txt.gz
Cloud_Cover
96 92 100 100 78 100 51 73 47 49 28 97 100 87 63 3 0 0 0 0 0 0 0 0 0 0 0 0 0 2 0 0 0 0 0 0 0 100 100 100 100 100 100
95 100 100 100 100 99 100 100 100 100 100 100 55 83 43 5 4 1 2 0 0 0 0 0 0 0 0 0 0 0 2 0 0 0 0 0 0 38 100 100 100 100 100
100 100 100 100 100 100 100 100 100 62 27 98 8 5 4 3 5 5 5 5 5 5 5 0 0 0 0 0 0 0 0 0 0 0 0 0 0 11 100 100 100 100 100
100 100 100 100 100 100 100 93 38 84 36 2 0 3 0 0 2 5 5 12 67 8 10 53 7 0 0 0 0 0 0 0 0 0 0 0 0 1 100 100 100 100 100
100 100 100 92 74 100 93 30 2 1 2 4 0 4 2 0 5 5 5 5 99 100 96 5 39 1 0 0 0 0 0 0 0 0 0 0 0 0 79 100 100 100 100
73 34 6 7 1 0 0 0 0 0 0 0 0 5 0 0 0 0 5 61 52 96 85 76 23 75 16 0 0 0 5 1 4 7 0 0 0 0 2 100 100 100 100
0 0 0 0 0 0 0 0 0 1 0 0 0 5 5 2 0 4 5 85 99 94 100 100 94 61 19 5 5 4 0 5 6 4 2 0 0 0 0 53 100 100 100
3 5 3 5 5 5 4 1 2 4 1 1 2 5 1 2 5 5 4 66 40 36 70 99 66 71 94 13 5 0 5 3 0 5 5 3 0 0 0 0 27 100 100
5 5 4 1 4 0 0 0 3 4 5 5 5 4 5 5 1 3 5 5 5 59 100 91 35 71 90 6 5 5 4 0 0 4 5 5 5 0 0 0 0 67 100
5 5 5 5 1 3 0 3 5 4 5 5 5 5 34 29 58 32 33 5 4 14 44 6 89 32 5 5 5 5 6 0 0 0 2 5 5 5 2 0 0 0 68
89 12 5 2 0 0 4 5 5 5 5 11 6 5 63 74 51 5 7 43 52 84 83 100 100 16 5 5 8 11 5 0 0 0 1 5 5 5 5 2 0 0 0
5 41 5 0 0 0 5 5 5 10 7 42 98 15 53 90 72 100 91 15 60 43 100 86 25 74 46 5 5 13 8 4 4 0 1 5 4 3 63 5 4 4 3
31 3 3 2 0 3 5 5 21 84 63 100 72 27 98 96 84 100 100 100 87 79 55 99 79 18 27 5 5 5 5 3 2 0 3 2 1 0 10 3 1 89 100
5 5 5 2 5 89 98 87 30 42 69 100 95 58 86 100 100 100 100 100 10 56 96 68 73 89 59 6 62 5 5 11 5 2 7 5 0 1 0 3 40 9 53
5 5 5 5 93 100 92 58 95 82 73 97 69 88 95 99 100 100 100 100 96 20 34 98 16 96 82 17 70 84 69 98 82 5 2 4 0 0 94 3 1 6 8
5 5 8 98 95 100 59 24 54 85 94 100 99 96 99 100 100 100 100 100 100 52 5 94 81 100 82 67 79 28 47 60 5 37 12 0 1 6 16 5 5 0 47
10 5 38 99 100 58 76 85 98 94 84 100 57 78 94 100 100 100 99 100 100 89 65 2 85 94 84 100 99 92 92 26 46 34 99 5 61 4 5 18 5 0 11
5 5 95 100 97 74 6 84 97 98 85 99 100 94 73 100 100 100 93 82 10 66 92 94 11 98 100 100 100 99 88 100 88 98 100 92 93 2 5 100 5 2 4
60 100 100 69 38 24 31 60 60 95 97 100 96 79 94 100 100 5 5 6 5 39 89 87 71 100 100 98 100 100 100 81 100 90 75 100 71 5 27 99 5 5 12
100 100 85 83 61 100 90 100 100 97 99 99 99 100 100 64 5 5 4 5 50 100 100 96 99 100 99 100 99 99 82 90 99 99 98 100 82 5 88 100 73 51 73
100 100 97 74 62 100 65 5 25 83 98 100 99 100 18 5 0 0 4 66 100 100 100 100 100 91 100 100 100 70 100 94 71 100 100 100 100 80 14 100 93 100 69
98 82 95 99 100 89 5 5 0 2 23 22 18 5 5 5 59 4 80 98 30 54 100 100 100 100 100 100 100 100 100 100 100 100 100 100 100 97 100 100 78 100 100
44 12 100 99 32 98 5 0 0 0 5 10 6 5 5 5 44 66 59 28 98 99 94 79 100 99 100 100 100 100 100 100 92 83 100 100 100 100 100 100 41 96 100
47 97 100 98 98 68 4 0 5 2 5 27 5 5 5 37 13 5 5 5 78 100 100 63 65 54 100 100 100 100 100 98 48 55 100 100 100 100 100 100 63 91 100
100 100 100 100 100 89 5 0 2 4 57 52 58 53 8 5 5 2 5 76 71 77 96 82 29 55 60 7 43 97 52 98 83 100 86 100 100 100 100 23 5 92 100
100 100 100 92 5 5 5 0 1 5 44 77 70 73 68 4 0 5 7 14 85 65 5 23 95 96 100 100 74 86 96 100 100 64 100 100 99 100 88 58 3 78 100

GFSMA_prec_cloud_018.txt.gz
Cloud_Cover
100 96 66 65 98 90 85 75 74 100 100 71 10 100 100 100 100 99 2 5 2 0 0 0 0 0 0 0 0 0 0 0 0 3 14 6 0 0 0 0 100 100 100
100 95 100 100 100 100 67 99 100 100 100 100 100 100 89 40 66 4 5 5 0 4 5 4 2 0 0 0 0 0 0 0 0 0 0 25 0 0 2 1 100 100 100
100 100 95 100 100 98 92 67 100 100 100 98 96 99 41 11 3 0 0 2 3 23 100 5 4 4 0 0 0 0 0 0 0 0 0 0 17 3 0 64 54 100 100
62 100 85 78 68 42 100 100 100 97 96 95 84 3 0 0 0 0 2 5 5 7 37 79 50 5 5 0 0 0 0 1 3 0 0 0 0 8 4 0 50 100 100
7 32 88 76 55 34 6 0 0 0 0 0 0 0 0 0 0 0 0 1 0 3 42 99 100 100 42 2 0 0 3 3 5 16 13 0 0 0 0 0 0 89 100
5 4 1 0 0 0 0 0 0 0 0 0 0 0 0 0 0 0 0 8 46 100 95 76 48 10 98 88 5 3 5 4 6 100 96 6 2 0 0 0 0 8 100
0 0 0 0 0 0 0 5 0 0 0 0 0 0 0 0 0 0 0 1 1 73 96 100 100 46 76 17 34 5 5 56 100 24 5 5 5 5 0 0 0 1 81
0 0 0 0 3 5 5 1 0 0 0 0 0 0 0 0 0 1 3 4 5 95 100 100 96 68 92 93 6 1 10 5 0 4 5 5 5 5 4 2 0 0 3
0 3 4 0 5 2 0 0 0 0 1 1 0 4 0 4 5 1 1 2 5 17 39 6 96 100 70 14 0 1 5 0 0 0 2 5 5 5 5 5 3 0 0
35 49 4 1 0 0 4 0 0 0 0 2 4 4 5 9 5 5 0 0 1 5 4 2 4 14 6 0 0 3 5 5 4 0 0 5 5 5 5 5 5 4 4
95 15 4 2 0 0 0 0 1 5 8 5 5 5 7 18 5 4 5 0 0 0 0 93 83 5 1 4 0 5 5 5 4 0 0 1 5 5 5 5 5 4 5
79 96 15 3 5 5 5 0 5 5 5 5 5 6 51 43 45 4 5 3 0 0 0 12 27 5 3 5 15 5 5 4 0 0 0 0 3 72 24 5 62 100 83
100 42 5 5 5 5 5 5 7 24 15 5 5 11 24 12 5 5 3 6 5 0 0 0 4 5 5 4 2 2 0 0 0 0 0 6 18 82 99 5 70 100 100
73 11 5 5 5 40 19 32 73 29 8 5 12 100 99 5 38 77 5 5 3 0 0 0 0 4 5 5 5 5 4 0 0 5 0 5 5 5 6 3 34 100 100
78 7 5 5 24 5 6 5 9 45 14 21 6 91 100 49 11 18 38 26 34 5 5 0 0 0 34 56 5 0 0 0 1 2 0 0 5 26 2 2 4 19 5
8 5 5 54 61 84 58 93 100 99 81 74 68 100 100 100 5 29 6 5 66 83 56 5 5 89 77 4 0 0 0 0 0 0 1 5 30 6 5 5 5 5 5
5 13 45 6 99 100 100 99 15 5 5 15 41 100 52 54 28 79 6 5 5 6 6 5 0 2 1 0 0 0 0 0 1 20 34 22 36 87 30 97 5 5 5
29 39 10 5 100 100 99 92 8 6 51 73 9 76 100 6 78 38 5 5 5 0 0 0 0 1 1 4 5 4 5 5 5 5 1 10 65 98 38 97 5 5 5
63 10 5 13 80 5 10 78 70 100 54 39 42 15 8 64 29 5 0 0 0 0 5 5 5 5 5 5 5 5 5 5 5 8 47 100 74 97 54 5 5 5 5
62 5 27 31 78 84 15 28 97 100 52 8 5 5 77 62 5 0 0 0 0 4 5 5 5 5 5 5 30 5 5 4 5 2 10 100 100 100 100 38 7 11 35
80 32 88 78 100 87 100 100 100 82 90 90 5 5 5 4 0 0 0 2 5 5 5 5 5 5 5 5 5 29 95 52 3 5 17 97 17 100 100 99 100 100 100
95 71 100 97 100 95 100 100 98 84 37 24 0 3 0 0 5 5 5 5 5 5 5 6 5 8 13 94 86 58 13 5 66 5 5 10 100 100 100 97 100 100 100
96 100 100 100 100 100 100 100 100 100 92 3 3 5 0 5 5 5 0 0 0 2 40 99 100 96 96 96 84 5 5 5 5 5 5 3 100 100 100 100 100 100 100
100 100 100 100 100 100 100 100 100 32 0 4 5 3 5 5 5 0 0 0 3 3 5 95 85 5 5 5 5 5 5 5 4 3 7 15 98 100 100 86 90 38 89
100 100 100 100 100 100 100 100 60 5 2 5 5 5 23 5 3 0 0 4 5 0 5 5 5 5 5 58 61 96 34 94 53 5 56 95 72 11 100 99 100 100 83
100 100 100 100 100 100 100 100 15 5 2 5 5 5 5 5 5 5 4 5 5 5 2 3 5 5 7 63 99 100 91 100 99 73 94 81 99 100 56 98 74 100 36

GFSMA_prec_cloud_021.txt.gz
Cloud_Cover
100 100 100 100 100 100 100 100 100 100 75 84 46 86 27 37 100 38 97 93 17 4 5 8 5 0 0 0 0 0 0 0 0 2 2 0 0 57 71 9 1 27 12
100 100 100 100 100 100 100 94 97 34 6 10 52 54 63 100 100 100 100 20 86 37 0 2 2 30 4 3 0 0 0 0 0 0 0 94 55 0 40 98 65 19 12
100 100 100 99 100 100 8 5 0 1 2 14 39 8 0 0 0 1 0 0 0 0 0 1 26 83 80 5 5 0 0 0 0 0 0 2 48 83 0 2 51 76 59
100 100 100 100 92 23 5 5 5 0 0 0 0 0 0 0 0 0 0 0 0 5 4 4 8 43 14 1 5 4 0 3 0 4 2 24 2 19 16 0 0 0 90
94 94 26 26 5 5 5 3 0 0 0 0 0 0 0 0 0 0 0 0 0 2 43 96 100 100 100 64 15 5 2 1 0 4 21 73 19 2 0 0 0 0 0
62 38 29 10 5 1 0 0 0 0 0 0 0 0 0 0 0 0 0 0 0 4 68 92 60 75 64 53 42 5 5 43 5 2 4 8 49 5 4 1 3 0 0
5 5 0 0 0 2 0 0 0 0 0 0 0 0 0 0 0 0 0 0 0 2 90 100 90 64 48 5 5 5 5 5 3 5 5 5 5 5 5 5 5 5 1
0 0 5 5 5 5 1 0 0 0 0 0 0 0 0 0 0 0 0 5 14 61 40 96 100 99 93 88 83 32 5 5 0 0 2 5 4 5 5 5 5 5 5
2 5 5 43 5 63 4 0 0 0 0 0 0 0 0 1 2 1 5 31 71 25 5 5 18 41 57 28 21 5 0 0 0 0 0 2 5 5 5 5 5 5 5
5 5 5 21 80 36 4 0 0 0 0 0 1 4 1 4 5 2 1 4 0 2 2 0 4 5 5 5 5 4 0 0 0 0 0 0 0 1 4 5 5 5 8
16 5 5 5 5 5 0 0 0 0 3 5 5 5 5 5 5 5 5 2 0 0 0 0 0 0 2 5 0 5 5 0 0 0 0 0 0 2 5 5 4 55 7
10 10 5 14 60 5 5 2 1 5 5 5 5 10 5 5 8 16 5 0 0 0 0 0 0 0 0 0 0 0 0 0 0 0 0 0 4 5 32 100 96 100 100
16 5 5 31 5 5 5 5 5 5 5 5 5 5 5 5 5 35 4 0 0 0 0 0 0 0 0 0 1 0 0 0 0 0 0 0 5 5 58 100 100 92 99
5 5 42 39 5 0 5 5 5 5 5 5 5 5 5 5 88 5 5 0 2 0 0 0 0 0 0 4 5 5 5 0 0 0 0 0 0 5 5 96 100 100 93
65 5 5 5 5 5 2 5 5 5 5 5 9 24 69 45 100 100 42 8 23 11 4 0 0 4 5 4 4 0 0 0 0 0 0 0 0 5 86 100 93 9 71
100 5 56 5 5 25 36 9 5 5 8 66 57 96 100 100 100 99 67 54 23 74 8 0 0 0 0 0 0 0 0 0 0 0 0 0 4 50 51 5 5 5 5
84 73 50 14 92 100 84 66 5 17 58 74 86 100 100 100 100 100 93 6 41 99 5 1 0 0 0 0 0 0 0 0 3 3 0 0 19 69 5 32 100 17 16
91 60 31 73 40 100 100 100 81 56 79 100 96 100 96 100 100 90 30 37 90 2 0 0 0 0 0 0 0 0 0 0 5 5 5 9 30 42 21 10 100 97 6
93 85 92 89 51 90 100 95 100 100 100 100 100 100 90 100 74 5 4 0 0 0 0 4 0 0 0 0 0 1 0 0 2 4 4 5 23 29 28 44 99 60 22
97 84 95 100 100 100 100 100 100 100 100 100 100 100 100 92 5 2 0 0 0 0 0 3 0 0 2 0 4 11 28 5 5 4 5 5 5 5 5 83 100 39 5
73 100 100 96 98 100 100 100 100 100 100 100 100 78 39 3 0 0 0 0 0 2 5 5 5 5 5 5 96 84 85 5 0 0 1 2 3 5 28 100 99 90 63
100 100 100 100 100 100 100 100 100 100 100 94 100 82 4 5 0 0 0 1 5 4 5 5 9 86 80 72 23 5 5 5 5 0 4 0 0 4 30 100 100 100 100
100 100 100 100 100 100 100 100 100 96 100 100 56 85 4 1 0 0 0 0 0 0 2 3 12 64 10 40 5 5 5 10 23 5 9 5 0 0 86 100 100 100 100
100 100 100 100 100 100 100 97 100 100 94 44 5 11 5 5 5 5 0 0 0 0 0 4 20 3 3 44 88 53 35 5 7 5 76 77 1 4 17 87 100 100 30
100 100 100 100 100 100 100 100 98 85 6 85 61 1 4 5 5 5 5 5 4 0 0 0 0 5 5 9 57 100 81 100 71 5 69 84 15 15 5 100 100 100 83
100 100 100 100 100 100 100 58 53 79 95 61 1 4 4 2 5 5 5 5 5 2 4 5 0 5 5 5 51 96 87 99 100 88 91 65 5 74 18 100 36 57 100

GFSMA_prec_cloud_024.txt.gz
Cloud_Cover
100 100 100 100 100 100 100 100 100 100 100 100 100 87 51 59 5 5 1 0 0 0 0 0 0 0 0 0 0 0 0 0 0 0 0 0 6 33 85 96 83 100 100
100 100 100 100 96 100 100 100 100 100 100 100 59 16 4 1 0 0 0 0 0 0 0 0 0 0 0 0 0 2 0 0 0 0 0 0 0 0 1 6 9 4 58
100 100 100 100 100 100 100 100 100 100 100 14 5 0 1 4 0 0 0 0 0 0 0 0 0 0 3 4 5 5 5 4 1 0 0 0 6 0 0 0 0 0 0
100 100 100 100 100 100 100 93 80 5 5 5 5 4 0 0 0 0 0 0 0 0 0 43 99 98 98 100 76 70 54 5 5 0 1 0 0 0 3 2 0 0 0
100 100 100 100 96 77 15 33 9 5 5 2 0 0 0 0 0 0 0 0 0 0 0 3 12 5 22 17 69 86 40 5 5 5 1 0 0 2 3 2 4 0 0
72 92 91 35 18 5 5 5 4 5 5 0 0 0 0 0 0 0 0 0 0 0 4 22 82 58 97 96 76 5 5 5 5 5 5 0 4 5 5 5 5 5 4
61 22 5 5 59 5 5 5 5 61 6 1 0 0 0 0 0 0 0 0 0 0 0 4 68 83 92 100 78 92 70 70 5 5 1 4 5 5 5 5 5 5 5
5 5 5 5 5 5 5 5 46 15 1 0 0 0 0 0 0 4 0 0 0 0 0 0 1 5 5 34 19 5 5 5 3 2 0 0 0 4 4 5 4 5 5
4 3 5 5 5 4 2 5 5 5 0 0 0 0 0 0 1 0 0 0 0 0 0 0 0 0 0 2 5 5 5 28 5 2 0 0 0 5 4 4 4 5 5
5 5 5 5 5 0 4 5 5 0 0 0 0 4 5 5 5 5 5 5 8 30 5 0 0 0 0 0 1 4 5 5 5 3 0 0 5 5 5 5 5 5 5
5 5 5 5 5 5 4 5 0 0 0 2 5 5 5 5 4 5 5 2 4 5 2 6 4 0 5 0 0 0 0 0 0 0 0 0 0 5 5 7 3 2 78
64 86 85 40 5 15 0 1 0 0 0 2 4 5 5 5 5 5 5 5 2 2 5 45 91 50 0 0 0 0 0 0 0 0 0 0 4 5 5 5 14 20 69
83 86 99 100 82 83 5 29 5 3 12 6 5 5 5 5 5 5 25 74 50 64 48 33 5 0 0 0 0 0 0 2 5 5 2 0 5 1 5 5 28 96 91
100 94 100 52 97 5 5 45 5 5 5 5 5 5 68 81 66 100 100 100 99 34 100 52 5 0 0 0 0 3 4 4 2 0 0 0 1 5 20 82 100 100 100
100 99 64 35 95 52 8 5 5 5 5 14 6 92 100 100 100 100 100 100 58 7 15 5 5 2 0 0 0 0 0 0 0 0 0 5 5 5 55 100 100 100 100
98 72 89 78 83 6 99 60 61 34 5 17 100 74 10 65 100 100 100 89 95 96 74 60 6 4 0 0 0 0 0 0 0 0 3 5 5 5 9 34 7 5 69
86 100 46 85 51 90 100 50 70 60 92 100 74 92 65 100 100 100 100 100 89 91 75 19 0 0 0 0 0 0 0 0 0 0 4 5 5 1 5 5 5 5 5
83 99 84 85 5 72 100 99 65 10 26 17 81 86 99 100 100 100 100 19 23 0 2 4 0 0 0 0 0 0 0 0 0 0 5 0 3 5 5 5 5 34 81
23 5 5 15 80 100 98 99 97 85 100 100 100 100 100 100 100 75 30 47 18 1 0 5 0 0 0 0 0 0 4 4 4 2 0 0 0 5 5 4 5 57 92
5 5 73 100 99 94 66 95 64 84 97 100 100 100 97 91 46 16 0 0 0 0 0 5 3 4 5 0 5 5 27 5 2 0 0 0 4 1 0 0 4 88 100
94 95 99 100 62 79 100 100 100 100 100 100 100 100 100 9 13 5 5 0 0 4 5 5 5 5 5 5 12 5 27 5 2 0 0 5 2 0 0 0 2 100 96
100 100 98 57 99 99 100 100 100 100 100 100 93 20 5 5 4 0 0 0 1 2 5 5 5 5 5 5 5 5 6 44 88 5 50 5 5 4 0 0 36 100 100
100 100 98 98 92 100 100 100 100 100 99 77 5 5 5 0 0 0 0 5 4 0 0 5 5 5 14 1 86 71 86 84 88 5 96 61 4 5 0 0 21 100 100
100 89 98 100 100 100 100 100 100 100 100 100 7 5 5 1 0 0 5 2 0 0 0 0 4 1 4 5 98 100 100 99 77 21 91 91 3 5 4 39 8 100 100
100 100 100 100 100 100 100 100 100 94 74 6 10 5 2 0 0 0 5 5 5 0 0 0 2 5 5 5 87 100 69 99 94 36 76 100 34 34 44 92 94 31 100
100 100 100 100 100 100 70 35 5 28 70 5 5 4 0 0 0 2 5 5 5 0 4 5 0 3 0 1 5 60 75 100 100 56 69 100 71 100 7 58 100 63 89

GFSMA_prec_cloud_027.txt.gz
Cloud_Cover
100 100 100 100 100 100 100 100 100 100 100 95 100 100 100 86 65 46 22 3 0 0 0 0 10 1 0 0 0 0 0 0 0 0 0 0 0 0 0 0 0 0 0
100 100 100 100 100 100 100 100 100 100 100 100 100 100 100 90 17 5 3 2 0 0 0 0 16 1 5 0 3 5 4 4 0 0 17 0 0 3 5 2 0 0 0
100 100 100 100 100 100 100 100 100 100 100 100 63 16 5 5 5 2 0 0 0 0 0 0 0 4 77 100 25 87 88 7 5 2 7 14 0 0 0 4 5 0 0
100 100 100 100 100 100 100 100 100 98 72 30 20 5 5 4 0 0 0 0 0 0 0 0 76 51 81 84 83 75 80 5 5 5 46 4 0 0 0 0 2 5 1
100 100 100 100 100 82 70 19 10 6 33 5 5 5 4 0 0 0 0 0 0 0 0 2 12 98 96 64 5 5 5 24 70 71 5 5 5 2 1 4 4 5 5
100 82 59 9 8 16 5 5 5 6 1 2 11 5 0 0 0 0 0 0 0 0 0 1 4 5 23 70 44 8 8 5 5 5 5 17 2 2 4 4 5 5 5
12 20 5 5 5 5 3 0 0 0 0 5 5 5 0 0 0 0 0 0 0 0 0 0 0 1 2 2 18 27 36 5 5 72 99 77 0 0 1 5 4 1 0
5 5 5 4 3 3 5 0 0 0 4 5 5 3 0 0 0 0 1 0 0 0 0 0 0 0 0 0 0 0 0 0 4 5 5 5 2 5 5 5 16 35 5
5 2 0 2 1 0 1 5 3 0 0 0 0 0 0 0 5 4 5 1 4 5 17 41 7 5 1 0 2 2 0 0 0 0 4 5 5 46 95 54 5 5 5
5 5 6 25 5 5 27 50 7 5 5 5 5 3 5 5 5 5 5 5 5 90 100 100 97 5 21 99 100 58 3 1 0 1 4 5 5 37 92 12 5 6 11
5 6 8 69 100 66 96 66 5 85 5 5 5 5 5 5 5 5 5 5 5 24 99 100 94 40 27 10 5 0 0 0 0 0 2 5 5 5 87 81 5 5 5
22 100 11 34 74 86 97 5 22 36 61 5 7 63 6 5 5 28 5 5 5 5 5 6 58 36 99 99 21 4 1 0 0 0 5 5 5 5 5 5 5 5 5
85 16 65 84 100 46 37 99 79 79 87 12 34 5 17 76 29 5 5 6 83 75 38 85 100 100 100 100 95 32 0 0 0 0 4 5 5 1 0 4 5 10 20
100 100 100 100 100 6 98 20 94 100 16 84 74 5 5 5 5 5 5 37 80 80 100 100 100 100 100 37 5 0 0 0 0 0 3 5 5 5 5 13 70 99 100
100 100 100 100 100 92 93 6 91 95 89 52 46 13 56 87 97 36 69 57 96 78 17 79 77 23 5 1 0 0 0 0 0 2 3 5 11 98 99 100 100 100 100
100 100 90 100 100 73 89 93 80 76 5 47 74 59 98 76 83 97 100 100 99 100 76 61 4 3 0 0 0 0 0 0 0 3 5 5 5 95 97 62 86 97 97
100 89 100 100 100 100 86 99 100 97 96 24 49 98 24 73 100 100 100 100 100 27 5 0 0 0 0 0 0 0 0 0 0 0 5 5 5 5 5 5 5 10 7
100 91 27 64 73 90 100 100 31 5 5 5 5 40 96 100 100 99 100 90 1 2 5 0 0 0 0 0 0 0 0 0 0 0 5 4 5 5 5 82 76 6 5
8 38 29 99 99 94 72 5 42 38 26 9 37 76 100 100 100 100 58 0 0 0 0 5 5 0 1 0 0 0 0 0 2 1 0 0 0 3 15 19 5 5 0
49 68 12 45 100 66 5 5 5 5 5 21 58 97 100 100 99 21 0 0 0 0 0 5 5 1 4 1 5 5 4 3 0 0 0 4 5 5 5 5 0 0 4
82 98 100 100 100 55 30 46 5 8 89 98 100 100 100 41 3 0 0 0 0 4 5 5 4 5 5 4 5 1 5 5 5 3 5 5 5 5 5 4 0 0 2
100 100 100 100 100 92 99 93 42 95 99 100 100 67 12 5 5 5 3 0 2 5 5 5 5 5 5 5 3 37 46 94 88 5 29 26 5 5 5 5 4 5 5
99 100 100 95 84 100 100 97 93 91 97 68 89 5 5 11 5 5 0 0 3 5 5 5 5 5 5 5 9 79 92 100 97 22 65 61 5 5 5 2 25 11 22
100 100 100 100 100 100 84 91 52 25 5 52 50 5 5 16 5 0 0 0 3 5 5 5 2 5 5 5 40 94 98 86 42 5 7 89 5 5 5 20 98 100 99
100 100 100 100 78 94 81 7 2 5 5 5 5 5 5 5 0 0 0 2 2 4 4 5 2 4 5 5 5 9 6 93 94 31 36 66 5 6 5 5 32 100 100
100 100 100 78 63 23 31 5 3 5 5 5 5 5 5 5 0 0 5 5 5 5 5 5 5 0 4 5 5 5 5 100 100 83 29 42 11 94 83 6 27 100 98

GFSMA_prec_cloud_030.txt.gz
Cloud_Cover
100 88 100 100 100 67 52 84 32 28 100 63 100 90 83 38 6 5 6 5 5 4 1 2 12 20 14 0 0 0 4 0 1 0 0 0 0 0 0 0 0 0 0
100 100 100 100 100 100 67 95 100 100 98 100 100 90 95 19 22 6 5 4 0 0 0 0 7 22 66 0 3 5 5 23 3 4 5 12 0 0 0 0 0 0 0
100 100 98 25 99 100 100 100 100 100 100 100 100 44 5 6 5 0 0 0 0 0 0 0 3 2 7 7 48 100 100 100 39 7 5 15 5 1 0 0 0 0 0
99 9 100 100 100 98 100 100 92 74 36 24 14 37 3 0 0 0 0 0 0 0 0 8 1 3 4 40 44 5 5 5 5 6 100 94 7 5 4 3 4 4 1
100 100 100 100 100 100 100 100 61 91 25 9 2 0 0 0 0 0 0 0 0 0 0 0 2 3 5 5 5 5 4 5 5 6 6 5 8 47 6 3 2 5 5
100 100 100 100 100 100 100 83 49 48 4 0 0 0 0 0 0 0 0 0 0 0 0 0 0 0 0 1 2 2 0 5 5 8 72 54 99 100 15 5 5 5 4
100 100 100 100 100 77 46 30 5 0 0 0 0 0 0 0 0 0 0 0 0 0 0 0 0 0 0 0 0 0 0 0 5 5 5 6 5 5 5 6 37 9 15
98 19 8 5 5 42 4 2 1 3 5 5 5 5 0 0 0 0 0 0 0 0 0 0 0 2 2 5 2 1 0 0 0 0 5 5 5 5 5 6 83 98 44
12 12 12 5 5 5 5 5 60 94 48 7 3 5 5 3 0 5 5 5 4 3 4 5 4 4 16 37 43 44 51 4 3 5 5 5 5 22 51 29 6 94 83
49 33 5 5 32 31 10 57 100 43 68 74 5 16 86 35 5 5 3 5 5 5 5 5 31 47 57 89 100 100 100 100 98 83 5 5 5 5 54 76 68 100 100
5 46 85 66 88 89 97 100 93 97 6 76 5 37 8 5 5 5 5 5 5 38 93 100 100 98 99 97 70 19 5 16 79 3 2 5 5 5 5 30 94 47 90
6 87 7 15 72 99 100 96 67 67 21 28 5 5 5 5 5 5 5 5 5 28 39 54 20 23 56 68 86 51 4 5 5 4 5 5 5 5 5 5 5 5 5
84 71 87 99 97 81 100 88 54 26 5 5 5 5 5 5 5 5 5 5 5 5 5 46 79 47 52 49 23 86 50 3 0 0 0 2 5 5 5 5 5 21 74
70 83 100 100 98 100 71 5 32 8 64 46 5 5 5 5 5 5 5 5 5 5 5 5 51 94 100 100 92 3 0 0 0 0 0 5 5 5 19 8 66 79 100
100 15 85 99 100 100 100 84 68 99 93 5 5 4 4 4 5 5 5 5 7 68 15 100 97 93 58 29 0 0 0 0 0 2 1 5 5 5 32 96 99 100 100
64 98 96 100 100 100 99 72 98 61 5 4 0 1 30 74 5 5 6 63 82 64 24 5 4 0 0 0 0 0 0 0 0 0 5 5 5 79 98 46 27 60 99
100 100 100 100 100 97 81 84 93 25 5 32 75 99 20 5 5 22 5 5 5 5 6 0 0 0 0 0 0 0 0 0 0 0 5 5 5 7 5 5 5 5 98
100 100 100 100 100 100 94 100 82 75 92 82 52 12 5 5 4 4 4 0 0 0 0 0 0 0 0 0 0 0 0 0 0 0 5 5 5 5 5 5 5 5 83
100 100 100 100 100 100 97 100 99 100 100 90 60 6 5 5 5 5 3 0 0 0 0 3 0 0 0 0 0 0 1 0 1 4 2 5 3 3 5 7 5 5 5
100 100 100 100 100 100 100 96 89 100 100 65 6 5 5 5 5 5 5 3 2 0 0 3 5 3 0 0 0 5 2 4 4 0 1 0 4 5 5 5 5 5 5
100 100 100 100 100 100 100 99 80 98 34 17 5 5 81 60 5 5 15 5 5 0 4 5 1 0 3 2 5 2 5 5 5 4 5 4 5 5 5 5 5 5 5
92 77 100 100 100 100 100 100 86 43 64 5 5 6 97 44 5 5 5 5 2 5 2 5 1 5 0 5 5 5 56 96 96 10 5 5 5 5 5 5 4 5 94
100 100 99 100 100 100 100 100 88 10 5 5 5 26 100 61 5 5 5 2 1 0 2 5 5 3 5 5 10 11 91 99 100 25 44 54 5 5 4 5 5 21 95
100 100 100 100 82 100 100 92 53 54 25 5 5 22 85 74 39 5 5 0 0 0 4 5 2 0 2 5 68 6 5 14 28 11 5 94 5 5 5 5 5 5 14
100 100 100 100 100 100 87 99 100 98 11 10 5 51 70 39 21 5 5 3 2 2 0 5 5 4 5 11 5 5 5 64 98 83 14 78 9 5 5 5 5 5 58
100 100 100 100 100 100 100 100 100 79 50 8 5 85 100 100 97 74 5 5 5 5 4 5 5 5 5 5 5 5 5 78 64 68 34 13 56 99 50 5 5 5 5

GFSMA_prec_cloud_033.txt.gz
Cloud_Cover
99 96 100 91 100 100 100 68 40 5 5 52 38 79 90 18 37 3 0 4 5 0 0 0 18 14 12 0 0 2 2 0 4 18 1 1 0 0 0 0 0 0 0
99 100 100 100 100 100 76 42 54 5 5 22 100 99 100 83 5 5 5 4 0 0 0 0 7 28 13 1 0 2 5 5 5 5 5 9 49 8 2 0 0 0 0
100 100 100 100 71 100 98 86 97 0 98 100 100 99 67 13 5 5 2 0 0 0 0 0 1 15 22 12 0 4 5 7 6 5 5 72 14 7 5 10 5 5 5
100 100 100 100 100 100 100 82 1 100 100 83 25 16 10 5 5 0 0 0 0 0 0 0 0 0 0 1 5 5 5 5 4 5 5 96 5 5 5 5 3 5 5
100 100 100 100 100 100 9 41 100 82 28 27 7 12 5 0 0 0 0 0 0 0 0 0 0 1 3 4 2 2 0 4 2 5 5 54 79 98 53 12 5 3 2
100 100 100 100 100 11 89 85 93 73 26 24 5 0 0 0 0 0 0 0 0 0 0 0 0 0 0 0 0 0 0 5 5 5 5 5 23 86 91 5 5 6 18
100 100 100 13 100 100 93 30 57 55 5 2 5 3 4 0 0 0 0 0 0 0 0 0 0 0 0 0 0 0 0 0 2 0 5 5 5 5 5 5 11 64 100
100 100 44 85 83 91 71 5 5 5 5 5 5 5 5 2 0 0 1 0 0 0 0 0 0 0 0 0 5 5 5 5 5 4 0 5 5 5 5 7 7 57 82
27 26 12 38 37 6 7 6 90 96 77 12 6 86 7 5 0 0 0 0 0 1 0 0 0 0 0 0 0 0 0 0 1 2 0 5 5 5 5 6 5 32 74
47 86 75 5 5 6 7 71 62 82 60 79 24 5 5 0 0 0 2 5 1 0 0 0 5 4 0 0 0 0 0 1 2 4 5 5 25 38 6 8 60 80 24
57 77 75 5 36 84 59 69 88 95 100 100 22 4 0 0 0 0 0 0 1 2 1 5 5 5 5 5 5 2 4 5 5 3 3 20 88 98 17 32 79 48 96
85 91 31 70 96 80 41 98 98 100 6 12 5 5 1 0 0 0 0 1 5 5 2 5 0 5 5 5 5 5 19 32 42 93 91 100 63 24 5 5 5 5 8
66 72 58 12 37 89 48 48 63 22 5 5 5 5 5 0 2 0 5 5 5 5 5 4 3 4 0 5 5 3 6 6 21 15 2 1 2 5 5 5 16 34 83
33 29 56 97 89 97 100 48 99 5 5 5 5 5 5 5 5 3 5 5 5 10 76 66 5 0 0 0 0 0 0 0 0 0 0 5 5 5 28 38 46 72 97
91 99 95 99 66 33 96 99 25 15 5 9 5 5 5 5 5 3 0 5 6 5 5 52 66 15 0 0 0 0 0 0 0 0 0 5 5 5 47 75 91 100 100
93 82 71 90 96 86 25 89 88 17 81 96 56 5 5 4 1 0 0 4 5 5 5 5 64 24 4 0 0 0 0 0 0 0 2 5 5 5 5 44 20 23 45
74 73 98 88 72 100 98 70 74 99 100 82 71 41 5 5 5 5 5 5 5 5 5 5 5 3 0 0 0 0 0 0 0 0 4 5 5 5 9 5 5 7 5
62 62 100 100 100 80 99 92 100 100 97 100 100 75 28 40 5 5 5 5 5 5 2 5 5 4 3 2 0 0 0 0 0 0 0 5 5 5 5 5 7 42 78
78 16 99 63 15 72 96 94 100 100 100 100 91 79 67 70 82 9 10 5 5 5 3 3 0 5 5 5 0 0 0 0 0 0 0 5 5 5 5 5 5 5 5
66 91 94 37 98 100 98 100 100 100 87 94 100 100 100 100 100 74 14 5 5 5 5 5 5 5 5 3 3 0 0 0 2 5 8 34 5 5 5 5 5 5 5
100 100 48 38 100 100 100 100 100 98 99 100 100 100 100 100 100 33 5 5 5 5 5 5 5 5 5 5 0 3 5 5 5 60 76 100 5 5 5 5 5 5 5
100 100 100 100 100 100 100 100 100 100 100 100 100 100 100 100 44 65 14 5 5 5 5 5 5 5 5 5 0 5 72 94 48 30 85 91 71 5 5 5 0 5 5
100 100 100 100 100 100 100 100 100 100 100 100 100 99 76 74 36 97 96 66 55 6 5 5 28 5 5 0 5 38 99 100 99 58 82 86 5 5 5 5 4 5 5
96 100 100 100 100 100 100 100 100 100 83 100 92 93 83 16 12 93 100 98 99 82 5 71 8 5 4 0 11 97 100 99 98 86 94 82 43 69 5 5 3 5 5
100 100 100 100 100 100 100 100 81 97 100 93 90 60 27 5 9 100 100 88 98 100 35 92 5 5 0 4 8 94 100 100 98 73 40 97 95 77 57 23 97 78 6
100 100 100 100 100 97 99 99 100 50 83 32 64 83 12 5 48 100 81 100 100 100 91 5 5 2 3 5 5 58 100 100 100 97 59 94 99 100 60 37 98 100 100

GFSMA_prec_cloud_036.txt.gz
Cloud_Cover
100 100 81 77 100 46 100 81 88 100 82 99 4 8 31 6 0 5 0 0 1 0 1 2 21 25 20 2 0 0 0 0 0 3 5 2 2 0 0 0 0 0 0
100 100 41 100 100 100 100 100 100 100 100 44 79 26 6 3 1 5 4 0 4 1 0 4 10 17 39 0 0 0 2 5 5 5 5 1 19 5 5 5 4 1 2
100 95 100 100 100 100 100 100 100 100 6 99 100 59 13 0 5 5 1 5 0 0 0 0 0 1 15 1 0 5 2 5 5 5 2 5 12 5 5 12 5 4 5
33 100 100 100 77 100 100 93 98 19 17 98 19 5 0 3 5 5 1 0 0 1 1 0 0 0 0 0 21 20 5 5 5 1 4 5 12 50 89 16 5 5 5
100 100 100 100 100 100 100 99 100 100 100 72 35 3 5 5 5 0 0 0 0 0 3 1 1 0 15 18 36 36 4 0 3 5 18 53 84 73 94 92 67 5 3
100 100 100 100 97 100 92 100 96 100 77 5 5 5 5 5 5 0 0 0 0 0 0 1 0 1 0 0 0 0 0 0 5 5 5 5 5 5 12 27 8 5 10
100 100 100 100 100 100 100 100 76 53 5 5 25 5 5 2 5 5 0 0 0 0 0 0 0 0 0 0 0 0 0 0 0 0 0 5 5 5 5 5 5 5 84
100 100 93 100 79 100 97 57 5 5 5 5 7 5 5 4 2 0 0 0 0 0 0 0 0 0 0 0 0 0 0 0 0 0 3 5 5 5 5 5 14 80 76
100 100 98 92 100 28 24 5 5 5 5 8 5 13 5 5 4 0 2 0 2 2 3 2 5 5 5 4 4 4 3 0 0 0 4 5 5 5 5 5 5 68 14
100 100 100 96 63 5 5 34 7 40 39 63 66 6 0 0 0 1 0 2 5 5 5 5 5 5 5 5 5 5 2 0 0 0 5 5 5 24 78 89 61 65 96
92 91 56 93 87 66 84 40 100 100 77 67 5 2 0 0 3 5 3 5 1 5 5 5 5 5 5 5 5 40 5 5 5 5 0 0 0 5 47 64 94 100 100
99 100 100 100 100 69 46 78 74 75 92 60 12 5 1 0 1 0 1 4 5 5 5 5 5 5 5 5 5 3 0 1 0 0 0 0 0 0 5 20 90 43 33
100 100 100 100 53 82 73 99 95 76 71 79 91 5 5 4 2 5 5 5 5 5 5 18 38 79 83 65 5 5 0 0 0 0 0 0 0 5 5 5 5 34 78
100 100 100 98 65 76 100 66 53 9 45 10 5 5 5 5 5 57 98 69 17 5 10 73 100 99 99 96 62 2 0 0 0 0 0 0 0 2 5 5 5 62 100
100 100 100 100 99 100 100 86 44 83 100 5 5 24 94 88 82 100 100 85 5 5 5 20 27 87 98 100 75 5 0 0 0 0 0 0 4 5 5 5 44 95 100
100 100 100 100 84 100 71 100 86 94 36 5 74 95 99 94 100 100 56 52 10 25 19 29 42 63 61 9 5 0 1 0 0 0 0 1 5 5 5 6 34 43 7
100 100 100 100 92 90 95 71 100 80 94 98 100 100 100 100 100 99 99 97 85 90 66 6 9 29 56 48 5 5 3 0 0 0 0 0 5 5 5 5 5 5 44
100 100 100 96 99 100 100 99 100 90 100 100 100 100 100 97 100 100 100 100 100 100 97 9 6 5 30 34 5 5 4 0 0 0 0 0 4 5 5 5 5 5 5
100 100 100 98 100 100 100 100 65 100 100 100 100 100 100 100 100 100 100 100 100 100 100 94 11 55 12 5 7 5 4 0 0 0 0 0 5 5 5 5 5 5 5
100 100 100 99 100 100 100 100 100 100 100 100 100 100 100 100 100 100 100 100 100 100 100 87 83 72 10 25 5 5 2 0 0 0 2 34 10 5 5 3 1 4 5
80 96 100 100 94 100 100 100 100 100 100 100 100 100 100 100 100 100 100 100 100 100 100 98 97 91 16 5 11 5 0 0 4 5 5 75 93 99 100 100 84 80 31
100 97 100 100 100 100 100 100 100 100 100 100 100 100 100 100 100 100 100 64 51 56 100 100 100 93 5 6 76 5 2 5 4 5 5 8 100 100 100 100 99 1 0
100 100 100 100 100 99 95 100 100 100 100 99 94 100 100 100 100 100 57 9 37 91 5 68 79 97 46 93 5 5 5 5 5 19 31 33 100 100 100 100 98 3 4
100 100 99 97 100 100 100 100 100 89 71 95 100 100 92 100 98 47 7 57 39 24 5 11 5 85 16 5 5 4 5 47 64 78 76 56 83 100 100 100 72 19 5
90 90 99 100 100 100 100 28 17 79 99 100 85 95 100 70 65 7 5 33 79 94 87 5 5 5 5 5 5 2 5 84 94 53 51 95 87 100 100 100 100 98 5
96 100 100 97 93 36 95 100 100 97 57 44 45 56 26 72 5 5 5 43 66 68 100 100 8 5 5 5 5 7 29 96 100 56 48 93 92 99 100 99 100 100 97

GFSMA_prec_cloud_042.txt.gz
Cloud_Cover
100 100 100 100 100 100 100 100 100 100 100 98 94 88 24 33 90 71 16 1 12 14 5 0 3 23 19 8 0 0 0 0 0 0 0 2 0 45 0 6 5 5 2
100 100 100 100 100 100 100 100 100 100 100 100 100 89 5 62 14 86 96 10 2 5 4 5 48 25 66 70 0 0 0 0 0 0 5 3 4 39 10 5 5 12 21
100 100 100 100 100 100 100 100 100 100 100 86 100 100 100 100 100 6 4 30 12 5 5 1 1 10 35 96 0 0 0 3 0 1 0 5 5 4 3 5 5 10 85
100 100 100 100 100 100 100 100 100 100 100 100 95 84 100 100 96 11 42 5 13 5 5 1 0 0 0 0 0 2 0 0 0 4 5 3 5 3 3 5 8 9 5
100 100 100 100 100 100 100 100 100 100 100 100 100 61 55 67 37 80 5 5 1 0 2 0 0 0 0 0 0 1 7 3 3 4 2 3 5 5 5 5 5 5 5
100 100 100 100 100 100 100 100 100 100 100 98 100 91 5 8 27 35 6 4 0 0 0 0 0 0 0 0 0 0 0 0 0 1 0 2 5 5 5 5 5 5 5
100 100 100 100 100 100 100 100 100 100 100 41 9 5 5 55 89 5 2 0 0 0 0 0 0 0 0 0 0 0 0 0 0 0 1 5 5 5 5 5 5 5 5
100 100 94 96 100 100 100 100 99 56 100 100 38 40 5 4 5 5 5 5 0 0 0 0 0 0 0 0 0 0 3 0 0 0 0 4 5 5 5 5 5 5 5
100 100 100 100 100 98 80 89 100 100 83 9 85 5 8 23 5 4 5 5 1 0 0 0 0 0 0 0 0 0 5 5 5 1 0 4 5 5 5 5 5 5 5
100 100 100 97 73 99 97 100 100 100 99 94 10 99 98 11 5 5 5 0 5 2 0 0 0 0 3 5 5 5 5 5 5 5 0 0 5 5 5 5 5 5 5
100 100 100 100 100 100 100 100 100 100 100 100 80 100 100 70 78 58 42 9 5 5 5 1 1 4 3 5 5 5 5 8 10 4 0 0 0 5 5 5 5 5 5
100 100 99 100 100 100 100 100 100 100 100 100 100 92 98 62 96 53 89 40 77 82 90 35 5 5 5 4 5 11 31 5 5 5 0 1 0 1 5 3 5 5 5
100 100 100 100 100 100 100 100 100 100 100 100 100 100 100 95 100 99 100 99 65 98 100 100 66 5 5 5 15 36 5 5 5 5 5 2 0 0 0 1 5 5 5
100 100 100 100 100 100 100 100 100 100 100 100 100 100 100 100 98 98 99 98 87 93 96 100 100 100 43 31 94 21 5 59 5 5 5 0 0 0 0 0 5 5 5
100 100 100 100 100 100 100 100 100 100 100 100 100 100 100 100 100 88 100 98 74 39 80 100 100 100 100 97 71 28 8 5 5 4 1 0 0 0 0 0 0 4 5
100 100 100 100 100 100 100 100 100 100 100 100 100 100 100 100 100 100 100 99 100 99 21 100 64 71 100 100 93 28 9 5 5 5 0 0 0 0 0 3 0 0 5
100 100 100 100 100 100 100 100 100 100 100 100 100 100 92 100 100 100 100 100 78 97 12 5 46 96 76 16 33 46 5 5 5 5 0 0 0 0 5 0 0 0 0
100 100 100 100 100 100 100 100 100 100 100 100 100 100 100 100 100 85 100 98 88 7 23 5 5 63 64 12 8 11 31 5 5 5 0 0 0 4 1 0 0 0 0
100 100 100 100 100 100 100 100 100 100 100 100 100 100 99 91 67 99 97 87 93 93 97 82 5 5 5 6 13 5 5 5 5 5 1 1 0 0 0 0 1 0 0
100 100 100 100 100 100 100 100 100 100 100 100 100 100 85 100 80 14 14 67 63 95 98 100 48 26 7 5 93 86 8 5 5 5 4 3 0 0 5 5 0 5 5
100 100 100 100 100 100 100 100 100 100 100 100 100 99 93 48 17 34 17 5 38 25 27 96 99 75 38 64 96 100 86 5 6 5 4 0 0 2 0 0 3 27 76
100 100 100 100 100 100 100 100 100 100 100 100 100 97 99 60 13 5 5 5 21 77 14 69 11 5 67 66 100 100 100 72 5 5 4 0 0 0 0 0 36 93 5
85 52 74 79 59 53 91 100 100 100 84 90 84 100 47 6 5 5 7 5 5 5 33 74 96 60 52 6 60 100 100 94 9 5 5 4 4 1 5 5 5 4 0
51 48 58 42 50 70 73 61 84 98 100 100 73 61 62 25 21 53 16 5 5 5 5 5 13 19 19 11 100 100 100 100 100 5 72 16 5 4 5 19 5 5 1
5 5 5 10 79 99 100 98 100 95 76 100 93 34 5 83 21 5 5 17 16 5 5 39 11 3 5 20 100 100 100 100 64 5 79 93 5 5 5 21 11 1 5
99 100 83 48 84 40 100 86 63 54 59 31 15 25 48 11 19 5 5 5 5 5 30 48 15 59 4 5 78 100 100 100 97 28 29 100 46 15 5 100 13 2 1

GFSMA_prec_cloud_045.txt.gz
Cloud_Cover
100 100 100 100 100 100 100 100 100 100 100 100 100 100 100 100 100 100 66 10 73 96 40 89 98 86 39 15 0 0 0 0 0 0 0 0 0 4 4 0 4 2 4
100 100 100 99 100 100 100 100 100 100 100 100 100 100 100 100 100 100 100 100 100 69 95 45 19 36 68 26 0 0 0 0 0 0 0 2 3 6 2 1 3 15 5
100 100 100 100 100 100 100 100 100 100 100 100 100 100 100 100 100 93 77 100 100 100 7 61 6 12 13 10 1 0 0 0 0 0 0 0 2 2 0 0 3 5 5
100 100 100 100 100 100 100 100 100 100 78 100 100 100 99 100 100 100 100 100 100 70 8 9 5 3 18 0 0 0 0 0 2 5 4 0 2 4 5 5 5 5 5
100 100 100 100 100 100 100 100 100 100 100 73 100 100 100 100 100 100 100 86 100 69 61 6 2 0 0 0 6 19 0 0 0 0 2 2 3 5 5 5 5 5 5
100 100 100 100 100 100 100 100 100 100 100 100 100 100 100 100 89 30 32 5 10 4 1 0 0 0 0 0 0 0 0 0 0 0 0 1 5 5 5 5 5 5 5
100 100 100 100 100 100 100 100 100 100 100 100 100 100 100 100 100 7 53 5 5 5 5 0 1 0 0 0 0 0 0 0 0 0 0 0 0 5 5 5 5 5 5
100 100 100 100 100 100 100 100 100 100 100 100 100 100 98 58 7 43 5 30 89 33 39 3 0 0 0 0 0 0 0 0 0 0 0 0 0 4 5 5 5 5 5
100 100 100 100 100 100 100 100 100 100 100 100 100 99 5 68 45 23 82 92 5 5 5 0 5 4 0 0 0 0 0 0 0 0 0 0 0 2 3 5 5 5 5
100 100 100 100 100 100 100 100 100 100 99 100 100 98 80 92 98 100 57 9 5 5 5 5 4 4 5 2 4 0 0 0 4 1 0 0 0 0 0 5 5 5 5
100 100 100 100 100 99 100 100 82 100 100 100 100 100 100 100 100 75 100 89 46 5 5 5 5 5 5 3 0 0 1 4 0 0 0 0 0 0 1 5 5 5 5
96 100 100 100 96 91 84 96 100 100 100 100 100 100 100 92 92 89 99 98 59 41 9 5 5 5 5 5 5 5 5 0 0 5 5 0 0 0 0 2 5 5 5
100 100 100 99 88 100 98 100 100 100 100 100 100 100 100 100 100 100 97 98 15 84 93 30 24 29 69 77 23 5 5 4 5 5 5 1 4 5 5 5 2 5 5
100 100 100 100 100 100 100 99 100 100 100 100 100 100 100 100 100 100 100 100 65 100 100 100 100 96 51 62 17 5 5 5 5 5 5 5 5 5 5 5 5 0 5
92 67 100 100 100 99 100 100 100 100 100 100 100 100 100 100 100 100 100 100 100 74 25 81 68 100 70 15 5 5 5 5 30 5 5 5 5 5 5 5 3 0 0
99 100 100 100 100 100 100 100 100 100 100 100 100 100 100 100 100 100 100 100 100 68 12 5 5 5 14 85 24 5 5 5 5 5 5 5 5 5 2 0 0 0 0
46 74 100 100 100 100 100 100 100 100 100 100 100 100 100 100 100 100 100 81 96 75 90 5 5 5 5 5 5 9 63 45 40 17 6 5 3 0 0 0 0 0 0
98 100 100 100 100 100 100 100 100 100 100 100 100 100 100 100 100 100 84 82 68 68 78 7 5 5 5 5 48 50 6 15 5 5 5 1 0 0 0 0 0 0 0
94 100 100 100 100 100 100 100 100 100 95 100 100 100 100 100 100 68 88 85 10 43 83 80 10 5 5 13 48 73 48 54 99 82 100 99 3 0 0 0 0 0 0
99 100 100 100 100 100 100 100 100 100 100 100 100 100 100 100 100 77 29 5 5 27 99 100 80 8 16 5 96 100 74 90 88 84 100 100 5 1 5 0 0 0 0
100 100 100 100 100 100 100 100 100 100 100 100 100 100 100 100 57 5 70 52 56 47 76 20 5 5 5 5 54 19 7 17 96 98 74 69 42 28 19 5 0 0 0
100 100 100 100 100 100 100 100 100 100 100 100 100 100 100 100 5 5 67 65 47 84 69 76 88 91 32 71 15 21 38 52 100 95 100 100 100 99 95 5 0 0 5
100 100 100 100 100 100 100 100 100 100 100 100 80 100 94 85 16 50 100 65 32 100 100 59 5 14 82 84 100 100 52 85 100 100 100 100 100 100 97 0 5 5 40
100 98 87 98 99 100 98 100 100 100 83 92 85 100 71 18 35 89 30 55 100 82 73 59 18 63 84 83 73 85 6 29 92 99 100 100 100 100 61 4 30 10 5
36 16 5 46 78 73 62 94 100 100 100 36 5 25 36 24 62 24 5 86 99 100 63 5 16 5 80 100 32 100 100 100 100 100 100 100 100 100 9 4 11 5 5
3 5 7 64 100 100 97 72 48 10 53 92 77 89 46 5 6 33 20 67 26 5 5 5 5 72 100 10 5 7 45 100 100 91 90 100 100 100 77 44 5 5 55

GFSMA_prec_cloud_048.txt.gz
Cloud_Cover
98 93 89 39 86 93 67 86 100 100 100 100 100 100 100 100 100 100 100 100 100 100 100 100 86 49 100 74 46 9 91 5 0 0 0 0 2 1 0 1 4 2 5
98 99 55 98 100 95 65 80 99 100 100 100 100 100 100 100 100 100 100 100 100 100 100 100 100 100 100 100 6 5 5 5 0 0 0 0 0 0 0 0 1 2 4
100 88 90 100 100 100 94 94 100 100 100 100 100 100 100 100 100 100 100 100 100 100 100 100 100 100 47 100 6 3 0 0 0 0 0 0 0 0 0 0 2 0 5
100 100 100 94 76 94 98 100 100 100 100 100 100 97 31 96 100 100 100 100 100 100 100 100 100 95 95 6 5 1 2 0 0 0 0 0 1 1 1 2 5 5 5
100 100 100 91 14 62 100 100 100 83 94 100 100 100 100 100 100 100 98 98 100 100 92 100 100 64 5 5 1 0 4 0 0 0 0 0 0 1 3 5 5 5 5
100 100 73 5 5 96 90 98 100 100 100 100 100 100 100 71 23 100 100 100 100 100 100 100 76 23 5 0 0 1 4 0 0 0 0 0 0 0 0 1 5 5 5
100 100 100 34 39 93 99 100 100 100 100 100 100 100 100 100 100 100 100 100 100 100 95 12 100 20 5 5 5 3 0 0 0 0 0 0 0 0 0 0 5 5 5
100 100 100 100 100 100 100 90 99 100 100 100 100 100 100 100 100 100 100 69 79 94 99 98 47 19 99 46 5 5 5 0 0 0 0 0 0 0 0 0 5 5 5
100 94 94 100 100 100 100 100 100 100 100 100 100 100 100 100 100 100 100 75 83 100 29 71 66 100 88 38 17 5 3 5 0 0 0 0 0 0 0 0 5 5 5
72 93 100 100 100 100 100 100 100 100 100 100 100 100 100 100 100 100 98 92 97 100 52 78 60 91 100 100 93 5 5 4 5 5 0 0 0 0 0 0 2 0 5
100 100 100 100 100 100 100 100 100 100 100 100 100 100 97 100 100 100 100 100 100 100 99 100 100 97 7 18 5 5 5 5 5 3 0 0 0 0 0 0 0 0 5
100 100 100 100 100 100 100 100 100 100 97 98 62 100 83 100 100 100 100 100 100 100 73 100 79 24 5 5 5 5 5 5 5 5 5 1 2 5 0 0 0 0 4
100 100 100 100 100 100 100 100 100 99 100 88 100 98 100 100 100 100 100 100 100 100 100 100 86 26 5 15 21 72 93 100 59 86 5 5 5 5 5 5 4 0 4
100 100 100 100 100 100 100 98 100 100 100 100 98 100 100 100 100 100 100 100 100 100 96 100 69 12 5 5 33 19 15 5 17 5 5 46 99 100 5 0 0 0 0
72 95 91 100 93 100 100 100 100 100 100 100 100 100 100 100 100 100 100 100 100 54 89 75 5 5 5 5 5 5 5 17 94 100 100 100 99 21 5 3 0 0 0
100 100 100 100 100 86 100 100 100 100 100 100 100 100 100 100 100 100 100 100 100 100 100 12 6 5 5 5 5 5 5 5 5 6 5 5 4 5 5 5 2 0 0
100 100 100 75 61 52 93 100 100 100 100 100 100 100 100 100 100 100 100 100 100 92 98 100 66 7 5 5 9 5 5 5 5 5 5 5 5 5 14 65 88 5 0
100 100 100 68 68 80 100 100 100 100 100 100 100 81 100 100 100 100 100 100 97 99 86 100 15 7 19 5 5 5 5 5 5 5 20 15 99 56 50 40 92 76 0
100 100 100 100 100 100 100 100 100 100 100 100 100 100 100 100 100 100 100 100 81 78 5 5 5 5 5 8 7 5 14 100 97 87 90 99 90 100 100 100 100 100 5
100 100 100 100 100 100 100 100 100 100 100 100 100 100 100 100 100 100 100 100 66 67 8 5 6 5 43 33 25 14 9 5 5 38 50 100 78 95 100 100 100 100 22
100 100 100 100 100 100 100 100 100 100 100 100 100 99 100 100 100 100 96 35 58 100 98 66 49 13 61 8 5 10 13 5 5 11 100 41 8 86 88 100 100 100 100
100 100 100 100 100 100 100 100 100 100 100 100 100 100 100 100 100 100 23 51 14 5 5 5 7 100 60 5 14 78 97 93 90 46 75 29 79 81 100 100 100 100 57
100 100 100 100 100 100 100 100 100 99 100 100 100 100 100 100 100 100 76 9 8 6 25 33 88 90 5 5 7 7 30 85 100 100 37 61 5 15 23 100 100 100 100
100 100 100 100 100 100 100 100 100 100 100 100 100 94 83 71 44 96 78 74 100 100 100 100 100 12 5 42 87 29 40 12 100 8 55 98 17 56 99 100 100 98 52
100 100 100 100 100 100 100 100 100 100 100 100 100 100 100 54 54 28 41 81 95 97 100 98 33 16 25 90 100 73 77 100 100 47 5 48 100 86 100 100 100 100 100
100 100 76 66 60 48 47 36 30 100 100 97 42 71 42 11 6 55 100 85 70 96 100 49 99 80 99 100 100 100 100 100 99 96 26 97 93 95 100 100 100 100 100

GFSMA_prec_cloud_054.txt.gz
Cloud_Cover
100 100 100 100 86 51 100 88 75 79 98 93 42 86 100 100 100 100 100 100 100 88 97 100 100 100 100 100 100 100 100 100 99 6 4 10 11 1 4 2 3 0 0
100 100 93 100 99 86 100 83 99 69 8 98 99 100 100 100 100 100 100 100 100 100 100 100 100 100 100 100 100 100 100 100 74 5 13 35 4 5 4 0 0 0 1
100 100 100 100 96 100 100 100 84 100 90 94 100 99 77 100 100 100 100 100 100 100 100 100 100 100 100 100 100 100 100 6 6 45 61 4 5 1 0 0 0 0 0
100 100 100 100 100 100 99 92 100 100 94 92 100 100 100 100 100 100 100 100 100 100 100 100 100 100 100 100 98 26 90 100 35 9 5 0 3 5 5 0 0 0 0
100 100 100 100 98 93 99 97 100 100 100 91 94 98 100 100 100 100 100 100 100 100 100 100 100 100 100 100 100 100 55 28 5 5 7 5 29 5 1 2 0 0 0
100 100 100 100 100 100 100 100 100 96 100 100 100 100 100 100 100 100 100 100 100 100 100 100 100 100 100 95 97 14 9 6 47 10 36 100 13 3 5 0 2 2 0
100 100 100 100 100 100 100 100 100 100 100 100 100 100 100 100 100 100 100 100 100 100 100 100 100 100 100 69 5 5 5 5 14 100 100 5 15 4 0 5 2 0 0
100 100 100 100 100 100 100 100 100 100 100 100 94 100 100 100 100 100 100 100 100 100 100 90 77 13 5 5 6 5 13 100 100 50 15 39 4 2 5 0 0 0 0
100 100 100 100 100 100 100 100 100 100 100 100 100 100 100 100 100 100 100 100 94 91 100 100 90 64 40 95 71 92 100 100 100 99 7 5 5 5 3 2 0 0 0
100 100 100 100 100 100 100 100 100 100 100 99 96 98 89 100 100 100 62 62 78 39 73 100 100 79 68 97 100 100 100 100 92 6 5 6 5 12 17 6 18 3 0
100 100 100 100 100 100 100 100 100 100 100 100 80 100 100 100 100 92 100 100 70 60 100 100 100 100 100 100 100 100 100 100 100 98 69 74 77 73 81 86 100 100 100
100 100 100 100 100 100 100 100 76 91 64 100 100 100 100 100 100 100 100 94 66 99 87 74 98 100 99 100 100 100 100 100 100 100 100 78 100 100 91 76 100 100 94
100 100 100 99 100 100 88 76 98 94 63 99 100 100 97 100 100 100 90 74 100 99 100 100 100 100 100 100 100 100 100 100 100 100 79 59 98 96 78 83 87 64 96
100 100 99 85 100 98 99 100 66 88 98 100 100 100 100 98 100 100 100 100 100 97 100 100 100 100 97 100 99 100 92 28 58 81 91 39 9 5 5 55 44 93 35
100 99 24 96 70 96 98 100 92 100 100 100 99 97 96 100 100 26 100 88 100 100 96 88 87 50 95 100 52 38 91 100 100 93 8 39 100 22 5 70 82 11 66
9 21 5 76 89 67 100 100 100 98 100 39 20 74 100 100 100 100 100 100 100 100 100 86 100 64 92 79 62 98 100 100 99 59 62 100 81 15 100 100 40 56 64
62 94 97 22 64 99 98 100 97 88 98 99 100 100 100 100 100 100 100 100 100 99 99 100 100 100 90 79 100 100 100 100 100 100 100 98 99 100 100 98 94 100 100
49 100 98 100 100 100 100 100 100 100 100 100 100 100 100 100 100 100 100 100 100 100 72 98 100 100 100 100 100 100 100 100 100 100 99 100 100 100 96 89 100 100 100
88 80 100 100 100 100 100 100 100 100 100 100 100 100 100 100 100 100 98 100 99 100 100 100 100 100 100 100 100 100 100 100 70 94 100 100 100 98 97 88 100 100 100
96 100 87 98 100 100 100 100 100 100 100 100 100 100 100 100 100 100 100 100 100 100 100 100 100 81 100 81 52 70 98 78 91 100 100 100 100 100 100 96 59 100 100
100 100 100 100 100 100 100 100 100 100 100 100 100 100 100 100 100 100 100 100 100 100 100 100 72 78 25 5 64 38 16 10 100 94 68 84 63 86 57 10 100 100 100
100 100 100 100 100 100 100 100 100 100 100 100 100 100 100 100 100 100 100 100 100 100 100 99 94 44 94 75 83 92 45 5 95 80 60 100 39 34 5 18 100 100 29
100 100 100 100 100 100 100 100 100 100 100 100 100 100 100 100 100 100 100 100 100 100 91 93 79 40 54 85 68 76 26 87 100 77 83 61 8 5 5 89 100 50 5
100 100 100 100 100 100 100 100 100 100 100 100 100 100 100 100 100 100 100 100 100 100 100 66 71 99 68 100 56 55 100 100 100 100 96 61 5 5 7 100 97 5 5
100 100 100 100 100 100 100 100 100 100 100 100 100 100 100 100 100 100 100 100 100 100 75 90 100 92 99 90 45 24 99 96 82 83 90 6 5 42 61 100 17 5 5
100 100 100 100 100 100 100 100 100 100 100 100 100 100 100 100 100 100 100 100 98 100 100 100 100 100 100 100 100 100 100 96 82 11 97 5 24 75 68 95 33 5 45

GFSMA_prec_cloud_057.txt.gz
Cloud_Cover
100 100 100 100 100 67 87 100 99 100 100 100 100 89 97 98 100 100 100 98 100 100 100 100 100 100 100 100 100 100 100 100 100 100 85 100 30 8 100 9 5 3 0
100 100 100 100 100 100 99 91 74 78 79 93 97 84 98 100 100 99 99 100 100 100 100 100 100 100 100 100 100 100 100 100 100 100 100 100 86 26 7 2 0 0 1
100 100 100 100 100 95 100 92 67 80 99 87 100 75 92 91 100 100 100 100 100 100 100 100 100 100 100 100 100 100 100 100 100 100 100 94 2 0 0 4 0 5 0
100 100 100 100 100 100 100 100 95 95 62 79 98 82 100 100 98 100 100 100 100 100 100 100 100 100 100 100 100 100 73 90 100 93 6 3 1 4 4 5 67 2 0
100 100 100 99 88 96 100 100 100 92 90 100 100 97 100 100 100 100 100 100 100 100 100 100 100 100 100 100 100 100 100 100 13 5 5 5 4 1 41 99 5 0 0
100 100 72 78 52 100 100 100 100 100 100 100 100 100 100 100 100 100 100 100 100 100 100 100 100 100 100 100 100 100 44 9 60 13 5 4 47 90 100 37 5 0 0
100 100 100 100 100 100 100 100 100 100 92 100 100 100 100 100 100 100 100 100 100 99 96 99 100 100 100 88 24 16 59 61 13 28 33 100 100 100 88 10 0 0 5
100 100 100 100 100 100 100 100 100 100 100 100 100 100 100 100 100 63 67 100 98 100 100 100 85 96 84 22 6 5 82 39 46 73 100 100 100 96 5 2 2 5 5
100 100 100 100 100 100 100 100 100 100 100 100 100 100 100 100 76 100 98 96 100 99 100 100 98 100 100 75 77 70 20 10 75 100 69 83 90 21 48 85 63 44 26
100 100 100 100 100 100 100 100 100 100 100 100 100 100 100 90 100 100 100 100 100 95 100 65 97 96 94 82 99 98 100 100 100 100 28 5 55 100 100 99 100 100 100
100 100 100 100 100 100 100 100 100 100 100 100 100 92 100 99 100 100 99 86 100 82 100 98 92 86 86 100 100 100 99 96 55 30 62 10 82 100 100 100 100 100 100
100 100 100 100 100 100 100 100 100 100 100 100 100 100 94 100 100 100 100 100 100 99 100 56 100 100 100 88 100 95 34 99 100 100 98 100 100 100 100 97 97 73 84
100 100 100 100 100 100 100 100 100 100 100 100 100 100 100 100 100 100 100 100 100 62 95 100 100 100 97 88 84 100 97 100 96 100 100 83 100 100 100 100 100 100 95
100 100 100 100 100 100 100 100 100 100 100 100 100 96 82 100 100 100 100 98 99 100 100 100 100 63 9 24 10 9 100 100 100 58 63 100 100 100 100 100 100 100 90
100 100 100 100 100 100 100 100 97 94 100 71 26 87 100 100 100 100 100 98 100 100 100 95 100 19 96 74 100 12 100 100 68 6 94 100 100 100 100 100 100 100 94
100 100 100 100 100 100 100 100 100 78 40 64 95 100 100 100 100 100 100 99 100 100 100 76 100 100 100 100 100 79 65 5 7 81 64 68 93 100 100 100 100 67 99
100 100 100 88 86 97 98 31 62 98 99 100 100 100 100 88 100 100 100 100 100 100 100 99 100 100 100 100 99 40 76 40 7 51 84 100 100 88 96 99 49 78 99
86 98 73 99 93 90 94 98 100 100 100 100 100 100 100 100 100 100 100 100 100 100 100 77 100 100 100 96 91 100 100 84 100 100 100 78 100 76 13 12 5 75 22
99 100 99 100 92 87 100 100 100 100 100 100 100 100 100 100 100 100 100 100 97 100 100 100 100 88 100 100 98 62 82 100 100 100 100 100 60 68 98 30 75 37 43
100 100 96 100 100 100 76 100 100 100 100 100 100 100 100 100 100 100 100 100 100 100 100 99 100 97 100 93 100 70 75 78 99 96 98 99 97 100 100 77 100 99 100
100 100 100 100 100 100 95 99 100 98 100 100 100 100 100 100 100 100 100 100 100 100 100 100 100 100 100 100 82 65 100 100 100 100 100 100 100 100 100 100 100 100 100
0 60 76 100 100 100 81 100 100 100 100 100 100 100 100 100 100 100 100 100 100 100 100 100 100 100 98 98 84 98 93 94 85 99 99 100 100 98 100 100 100 100 100
0 0 26 89 100 100 100 100 100 100 100 100 100 100 100 100 100 100 100 100 100 100 100 100 100 100 98 92 75 100 72 83 98 96 40 5 49 100 100 100 100 100 92
27 29 50 90 100 100 100 100 100 100 100 100 100 100 100 100 100 100 100 100 100 100 100 100 100 99 98 99 98 70 90 96 49 99 96 14 100 100 100 100 100 74 6
100 100 100 100 100 100 100 100 100 100 100 100 100 100 100 100 100 100 100 100 100 100 100 100 100 100 100 100 85 88 87 21 6 90 100 13 100 100 100 100 80 84 68
100 100 100 100 100 100 100 100 100 100 100 100 100 100 100 100 100 100 100 100 100 100 100 100 100 100 100 100 100 82 67 84 55 51 100 68 100 100 89 85 100 65 33

GFSMA_prec_cloud_060.txt.gz
Cloud_Cover
100 100 100 100 100 100 100 72 5 5 46 74 68 100 100 98 68 88 100 100 99 98 96 100 100 100 100 100 100 100 100 100 100 100 100 100 99 100 100 100 100 100 5
100 100 100 100 100 91 10 81 79 88 99 74 100 100 97 59 100 69 70 56 61 100 100 100 100 100 100 100 100 100 100 100 99 100 100 100 94 39 93 100 16 1 0
100 100 100 100 100 94 75 100 100 98 95 100 100 96 95 54 68 65 19 69 100 100 100 100 100 100 100 100 100 100 100 97 100 100 44 65 99 95 8 4 0 4 0
100 100 100 100 100 100 98 99 100 97 81 97 63 71 18 33 72 72 88 100 100 100 100 100 100 100 100 100 100 95 100 100 97 98 100 94 5 5 5 5 4 5 12
100 100 100 100 100 100 100 100 100 28 13 86 96 79 70 86 99 100 100 77 100 100 100 100 100 100 100 91 54 100 100 100 100 100 17 18 27 71 5 57 6 100 100
100 100 100 100 100 100 100 100 79 98 98 100 97 87 84 100 100 88 100 100 100 100 100 100 100 100 99 100 100 96 100 100 100 98 100 76 5 42 92 95 100 100 5
100 100 100 100 100 100 100 100 100 100 100 100 100 100 95 65 96 99 100 100 100 100 100 100 100 100 100 100 100 100 39 21 24 100 92 72 100 100 100 100 5 4 0
100 100 100 100 100 100 100 100 100 100 88 92 100 100 100 100 95 100 100 100 99 100 100 100 100 100 100 76 100 97 5 58 5 12 29 100 100 95 43 5 5 5 5
100 100 100 100 100 100 100 100 100 100 100 100 100 100 98 100 100 100 100 100 100 100 100 90 100 60 5 5 34 88 77 5 5 11 100 68 5 5 10 26 64 51 36
100 100 100 100 100 100 100 100 100 100 100 100 100 100 100 100 100 100 100 100 99 100 100 100 96 72 5 28 35 73 6 49 29 49 100 9 5 5 52 96 56 98 100
100 100 100 100 100 100 100 100 100 100 100 100 100 100 100 100 100 100 100 100 100 100 100 22 20 12 100 80 10 74 99 100 99 60 5 5 5 74 96 16 92 93 97
100 100 100 100 100 100 100 100 100 100 100 100 100 100 100 100 100 100 100 100 100 100 74 100 43 62 68 99 91 23 79 100 52 95 73 24 5 5 5 5 5 87 42
100 100 100 100 100 100 100 100 100 100 100 100 100 100 100 100 100 100 94 100 100 100 100 98 100 100 100 56 5 56 71 5 5 5 7 79 22 5 5 5 5 5 5
100 100 100 100 100 100 100 100 100 100 100 100 100 100 100 100 100 100 100 100 100 100 100 100 100 100 70 51 77 57 6 5 5 5 5 5 6 5 5 9 7 5 13
100 100 100 100 100 100 100 100 100 100 100 100 100 100 100 100 89 99 100 97 100 100 100 100 100 100 92 68 7 5 89 6 5 5 5 5 6 5 58 88 5 5 44
100 100 100 100 100 100 100 100 100 100 100 100 100 100 97 34 65 100 83 92 100 100 100 100 100 100 100 78 27 100 100 28 52 24 27 65 53 100 100 100 51 81 88
83 100 100 100 100 100 100 100 100 100 100 100 34 56 28 87 100 99 100 100 100 100 100 100 100 100 48 83 88 93 98 10 83 97 19 84 97 100 76 27 54 90 98
87 92 51 8 50 34 63 100 18 65 59 43 59 100 78 100 100 100 100 100 100 100 100 100 100 100 85 95 98 100 100 100 100 100 100 100 100 100 80 6 91 94 52
13 50 42 18 76 66 82 67 97 95 86 94 100 99 100 100 100 100 100 100 100 100 100 100 100 98 100 100 100 100 87 100 100 61 100 100 89 92 8 67 22 8 55
39 87 100 35 99 100 91 77 98 89 96 100 100 100 100 100 100 100 100 100 100 100 100 100 100 100 100 100 100 100 100 98 43 64 90 100 98 22 95 65 58 64 80
15 82 93 45 14 15 97 94 100 99 100 97 100 100 99 100 100 100 100 100 100 100 100 100 100 100 100 100 100 100 100 98 85 100 100 92 96 82 77 99 100 100 77
5 30 4 1 5 12 5 31 82 99 100 94 100 100 100 100 100 100 100 100 100 100 100 100 100 100 100 100 100 100 100 100 100 100 100 100 100 100 100 100 100 100 93
42 81 92 68 24 12 28 89 95 59 100 99 100 100 100 100 100 100 100 100 100 100 100 100 100 100 100 100 100 100 97 99 100 100 99 100 100 100 100 100 100 100 100
21 87 98 84 65 65 94 100 100 100 99 100 100 100 100 100 100 100 100 100 100 100 100 100 100 100 100 100 100 100 100 98 100 100 100 79 100 100 100 100 100 100 100
56 86 87 100 100 85 100 100 100 100 100 100 100 100 100 100 100 100 100 100 100 100 100 100 100 100 100 100 100 100 100 100 100 100 100 100 100 100 100 100 100 100 100
100 100 100 100 100 100 100 100 100 100 100 100 100 100 100 100 100 100 100 100 100 100 100 100 100 100 100 100 100 100 100 100 100 100 100 100 100 100 100 100 100 100 100